Location: ?????????
(41.2286°N, 23.0068°E)
Time: 09:44:54
(UTC+00:00)

CZ-2C R/B - Pass Details

Date: 08 November 2025
Orbit: 664 x 773 km, 98.4° (Epoch: 04 December)

Event Time Altitude Azimuth Distance (km) Brightness Sun altitude
Rises 02:36:11 0° 12° (NNE) 3,186 5.9 -28.7°
Reaches altitude 10° 02:38:27 10° 12° (NNE) 2,274 5.1 -28.3°
Enters shadow 02:42:15 53° 10° (N) 931 2.9 -27.6°
